User: anonymous   Login
Location: Alsip
(41.6689°N, 87.7387°W)
Time: 23:09:53
(UTC+00:00)
Language:

ISS - Orbit

View from above orbital plane
View from above orbital plane
View from above satellite
View from above satellite

Ground track
Ground track

The orbit data is extracted from the following two-line orbital elements,

1 25544U 98067A   20264.87334868  .00016717  00000-0  10270-3 0  9075
2 25544  51.6407 234.9777 0000323  77.2954 282.8232 15.48944910  6846
Epoch (UTC): 20 September 2020 20:57:37
Eccentricity: 0.0000323
inclination: 51.6407°
perigee height: 419 km
apogee height: 420 km
right ascension of ascending node: 234.9777°
argument of perigee: 77.2954°
revolutions per day: 15.48944910
mean anomaly at epoch: 282.8232°
orbit number at epoch: 684

The dashed part of the orbit path shows where the satellite is in the earth's shadow,  

DLR